Regional Weather Roundup
Issued by NWS Portland, ME

Home | Current Version | Previous Version | Text Only | Print | Product List | Glossary On
Versions: 1 2 3 4 5 6 7 8 9 10 11 12 13 14 15 16 17 18 19 20 21 22 23 24 25 26 27 28 29 30 31 32 33 34 35 36 37 38 39 40 41 42 43 44 45 46 47 48 49 50
000
ASUS41 KGYX 212110
RWRGYX
WEATHER ROUNDUP FOR MAINE AND NEW HAMPSHIRE
NATIONAL WEATHER SERVICE GRAY ME
500 PM EDT TUE OCT 21 2014

MEZ002-005-006-010-012-015-018-020-021-024-026-027-029-212200-
MAINE

CITY           SKY/WX    TMP DP  RH WIND       PRES   REMARKS
PORTLAND       LGT RAIN  55  53  93 N7        29.99S FOG
SANFORD        CLOUDY    50  45  81 N8        29.99R
BAR HARBOR     CLOUDY    52  52 100 NE6       30.09R
WISCASSET      HVY RAIN  53  51  93 CALM      30.03R VSB 3/4
ROCKLAND       CLOUDY    52  50  93 N5        30.03R
FRYEBURG       CLOUDY    47  45  93 N8        30.03R
LEWISTONAUBURN CLOUDY    48  45  87 NE12      30.02S
AUGUSTA        LGT RAIN  48  47  96 N10       30.05R FOG
WATERVILLE     CLOUDY    46  39  76 N12       30.04R
BANGOR         LGT RAIN  50  45  83 NE9       30.10R
GREENVILLE       N/A     44  38  79 NE3       30.08R
MILLINOCKET    CLOUDY    47  35  63 NE6       30.15R
HOULTON        CLOUDY    46  34  62 NE3       30.15R
PRESQUE ISLE   CLOUDY    45  28  53 NE5       30.17R
FRENCHVILLE    CLOUDY    43  26  51 CALM      30.16R
CARIBOU        CLOUDY    45  30  55 CALM      30.16R
$$

NHZ002-005-008-009-011-012-014-212200-
NEW HAMPSHIRE

CITY           SKY/WX    TMP DP  RH WIND       PRES   REMARKS
PORTSMOUTH     CLOUDY    56  53  92 N7        29.95R
ROCHESTER      LGT RAIN  51  49  92 N8        29.97R FOG
NASHUA         MOCLDY    57  54  88 N7        29.95R
MANCHESTER     CLOUDY    57  50  77 N8        29.94R
CONCORD        CLOUDY    53  49  86 NE9       29.96S
LACONIA        CLOUDY    48  45  87 NE9       29.98R
PLYMOUTH       CLOUDY    50  49  96 CALM      29.99R
BERLIN         RAIN      46  44  93 NW3       30.03R FOG
WHITEFIELD     LGT RAIN  47  44  90 NE6       30.00R
JAFFREY        CLOUDY    51  48  89 VRB5      29.95R
LEBANON        LGT RAIN  49  45  86 NE6       29.98R FOG
MT WASHINGTON  LGT RAIN  32  32 100 SE25        N/A  VSB 0   WCI  19
$$

VTZ005-007-008-212200-
VERMONT

CITY           SKY/WX    TMP DP  RH WIND       PRES   REMARKS
ST JOHNSBURY     N/A     48  46  93 MISG      29.99R
MONTPELIER     LGT RAIN  45  45 100 N3        30.04R
BURLINGTON     LGT RAIN  50  47  89 N5        30.01R
$$

MAZ007-012-024-CTZ003-RIZ002-NYZ038-NYZ072-212200-
SOUTHERN NEW ENGLAND AND NY

CITY           SKY/WX    TMP DP  RH WIND       PRES   REMARKS
BOSTON         PTCLDY    57  55  93 NE8       29.92R
WORCESTER      MOCLDY    57  50  77 NE6       29.91R
NANTUCKET      CLOUDY    59  56  89 SE13      29.90S
PROVIDENCE     MOCLDY    62  56  80 E5        29.89S
HARTFORD       MOCLDY    62  48  60 N9        29.88R
ALBANY         LGT RAIN  55  50  83 N7        29.92S
NEW YORK CITY  MOSUNNY   65  53  65 E12G20    29.82F
$$

ANZ081-ANZ082-ANZ150-NHZ014-MEZ023>029-212200-
COASTAL MARINE OBSERVATIONS

STATION/POSITION TIME  TEMP    WIND        PRES    WAVE
                       AIR SEA DIR/SP/G            HT/PER
                 (UTC) (F)     (DEG/KT/KT) (MB)    (FT/S)
MATINICUS ROCK   2100          110/ 18/ 20 1015.9R
PORTLAND WX BUOY 2050   56 55  100/  8/ 10 1015.2R   2/ 5
WELLS            2000   53 50   10/  6/  7 1014.0S
ISLE OF SHOALS   2100   56      50/  8/  9 1013.6R
JEFFREYS LEDGE   2021      56                N/A     4/ 7
CASHES LEDGE BUO 2050   57 56  120/ 16/ 19 1014.6F   5/ 7
$$

.............KEY..............
   WCI - WIND CHILL
   TC  - TEMPERATURE IN CELSIUS
   VSB - VISIBILITY IN MILES
   HX  - HEAT INDEX
   FAIR- INDICATES FEW OR NO CLOUDS BELOW 12,000 FT, WITH NO
         SIGNIFICANT WEATHER AND/OR OBSTRUCTIONS TO VISIBILITY.





USA.gov is the U.S. government's official web portal to all federal, state and local government web resources and services.